Notices

What's New in latest Release from April 7th, 2021:

- Updated Glossary, including Speed of Maximum Gust, and Total Hourly Precipitation

- Updated national and regional climate services offices contacts and prices information

- Addition of station inventory lists for 1981-2010, 1971-2000, and 1961-1990 Normals.

If you haven't already, please take our survey and provide feedback about our website: https://eccc.sondage-survey.ca/f/LanguageSelection.aspx?s=442ca660-fcf1-47c0-95a9-59707d6fd709

Hourly Data Report for March 31, 2021

MIRAMICHI RCS
NEW BRUNSWICK
Current Station Operator: ECCC - MSC

47°00'34.000" N
65°27'54.000" W
33.00 m
8100989
71744
ACQ

Download Data

Hourly Data (March 2021)
Hourly Data Report for March 31, 2021
TIME
LST
Temp Definition
°C
Dew Point Definition
°C
Rel Hum Definition
%
Precip. Amount Definition
mm

Wind Dir Definition
10's deg

Wind Spd Definition
km/h
Visibility Definition
km
Stn Press Definition
kPa
Hmdx Definition


Wind Chill Definition


Weather Definition


00:00 2.2 -3.7 65 LegendMM 21 16   101.98     LegendNANA
01:00 1.8 -2.7 72 LegendMM 22 22   101.99     LegendNANA
02:00 1.1 -2.2 79 LegendMM 22 18   101.97     LegendNANA
03:00 1.2 -1.4 83 LegendMM 22 21   101.93     LegendNANA
04:00 0.7 -1.3 86 LegendMM 23 10   101.93     LegendNANA
05:00 -0.1 -1.4 91 LegendMM 20 11   101.85   -4 LegendNANA
06:00 -0.5 -1.7 91 LegendMM 21 7   101.82   -3 LegendNANA
07:00 1.3 -0.2 89 LegendMM 22 14   101.80     LegendNANA
08:00 3.6 0.7 81 LegendMM 22 17   101.71     LegendNANA
09:00 6.0 1.7 74 LegendMM 23 23   101.63     LegendNANA
10:00 7.9 2.7 69 LegendMM 23 25   101.58     LegendNANA
11:00 10.1 2.9 61 LegendMM 24 25   101.48     LegendNANA
12:00 12.1 3.7 56 LegendMM 23 22   101.32     LegendNANA
13:00 14.4 5.2 54 LegendMM 20 24   101.25     LegendNANA
14:00 14.6 5.6 55 LegendMM 21 27   101.18     LegendNANA
15:00 14.8 6.5 58 LegendMM 21 33   101.11     LegendNANA
16:00 13.5 7.5 67 LegendMM 21 27   101.04     LegendNANA
17:00 13.8 7.9 68 LegendMM 20 26   100.96     LegendNANA
18:00 13.1 7.4 68 LegendMM 19 24   100.93     LegendNANA
19:00 12.5 6.8 68 LegendMM 20 30   100.91     LegendNANA
20:00 11.8 6.4 69 LegendMM 19 33   100.87     LegendNANA
21:00 10.9 6.2 73 LegendMM 21 25   100.90     LegendNANA
22:00 10.5 6.5 76 LegendMM 21 27   100.84     LegendNANA
23:00 10.1 6.3 77 LegendMM 21 23   100.83     LegendNANA

Notes on Data Quality.

Legend

  • E = Estimated
  • M = Missing
  • NA = Not Available*
  • [empty] = Indicates an unobserved value
Date modified: